Hourly Data Report for March 05, 2021

TORONTO CITY
ONTARIO
Current Station Operator: ECCC - MSC

43°40'00.000" N
79°24'00.000" W
112.50 m
6158355
71508
XTO

Download Data

Hourly Data (March 2021)
Hourly Data Report for March 5, 2021
TIME
LST
Temp Definition
°C
Dew Point Definition
°C
Rel Hum Definition
%
Precip. Amount Definition
mm

Wind Dir Definition
10's deg

Wind Spd Definition
km/h
Visibility Definition
km
Stn Press Definition
kPa
Hmdx Definition


Wind Chill Definition


Weather Definition


00:00 -6.8 -14.8 53 0.0       100.74     LegendNANA
01:00 -6.9 -15.0 53 0.0       100.74     LegendNANA
02:00 -7.1 -16.3 48 0.0       100.71     LegendNANA
03:00 -7.6 -16.8 48 0.0       100.65     LegendNANA
04:00 -8.0 -16.6 50 0.0       100.63     LegendNANA
05:00 -8.3 -16.0 53 0.0       100.64     LegendNANA
06:00 -8.4 -15.7 55 0.0       100.66     LegendNANA
07:00 -8.7 -15.6 57 0.0       100.67     LegendNANA
08:00 -7.8 -14.3 60 0.0       100.65     LegendNANA
09:00 -5.8 -13.7 54 0.0       100.60     LegendNANA
10:00 -3.1 -13.2 46 0.0       100.53     LegendNANA
11:00 -2.4 -13.5 42 0.0       100.46     LegendNANA
12:00 -1.4 -14.5 36 0.0       100.41     LegendNANA
13:00 0.2 -16.9 26 0.0       100.29     LegendNANA
14:00 1.2 -14.0 31 0.0       100.16     LegendNANA
15:00 1.3 -13.9 31 0.0       100.10     LegendNANA
16:00 1.1 -12.0 37 0.0       100.12     LegendNANA
17:00 0.7 -11.9 38 0.0       100.14     LegendNANA
18:00 0.2 -11.8 40 0.0       100.20     LegendNANA
19:00 -0.3 -10.8 45 0.0       100.25     LegendNANA
20:00 -0.5 -10.5 47 0.0       100.26     LegendNANA
21:00 -0.4 -10.2 47 0.0       100.28     LegendNANA
22:00 -1.0 -8.5 57 0.0       100.35     LegendNANA
23:00 -2.5 -10.9 52 0.0       100.43     LegendNANA

Notes on Data Quality.

Legend

  • E = Estimated
  • M = Missing
  • NA = Not Available*
  • [empty] = Indicates an unobserved value
Date modified: